Regional Weather Roundup
Issued by NWS

Home | Current Version | Previous Version | Graphics & Text | Print | Product List | Glossary On
Versions: 1 2 3 4 5 6 7 8 9 10 11 12 13 14 15 16 17 18 19 20 21 22 23 24 25 26 27
000
ASUS45 KTFX 171510
RWRMT
MONTANA REGIONAL WEATHER ROUNDUP
NATIONAL WEATHER SERVICE GREAT FALLS MT
900 AM MDT TUE OCT 17 2017

NOTE: "FAIR" INDICATES FEW OR NO CLOUDS BELOW 12000 FEET WITH NO
SIGNIFICANT WEATHER AND/OR OBSTRUCTIONS TO VISIBILITY.

MTZ001>007-043-171600-
WEST OF THE DIVIDE

CITY           SKY/WX    TMP DP  RH WIND       PRES   REMARKS
KALISPELL      CLEAR     34  30  85 SW9       29.94F WCI  27
MISSOULA       CLEAR     32  28  85 CALM      30.06F FOG
BUTTE          SUNNY     29  23  78 E6        30.14F WCI  23
MULLAN PASS    CLEAR     41  23  48 VRB3      30.02F
ANACONDA         N/A     48  19  32 CALM      30.09S
DEER LODGE       N/A     46  23  39 NW5       30.10S
EUREKA           N/A     46  28  49 MISG        N/A
HAMILTON         N/A     48  25  40 S14G20    30.06F
LIBBY            N/A     30  30 100 CALM      29.92F
PLAINS           N/A     29  24  81 CALM      30.00
$$

MTZ008-052>055-171600-
SOUTHWEST MONTANA

CITY           SKY/WX    TMP DP  RH WIND       PRES   REMARKS
BOZEMAN        CLOUDY    33  27  78 CALM      30.13R
DILLON         CLOUDY    40  21  46 S10       30.17F
W YELLOWSTONE  CLOUDY    23  18  80 CALM      30.32F
ENNIS          CLOUDY    39  21  48 S15       30.22F WCI  31
$$

MTZ009-010-012-014-046-048-049-054-171600-
EAST SLOPES AND CENTRAL MONTANA

CITY           SKY/WX    TMP DP  RH WIND       PRES   REMARKS
CUT BANK       MOCLDY    56  20  24 SW38G46   29.77F
GREAT FALLS    SUNNY     56  21  25 SW20      29.91F
MALMSTROM AFB  SUNNY     56  22  26 SW24      29.91F
HELENA         SUNNY     42  30  62 W5        30.03F
BOWMANS CRNR     N/A     55  21  26 S25G33    29.91F
CHOTEAU          N/A     59  19  21 S13G21    29.90S
FAIRFIELD        N/A     56  22  25 SW23G31   29.89F
POWER            N/A     54  22  28 S9        29.89F
RAYNESFORD       N/A     58  19  21 SW14G20   29.96S
ULM              N/A     55  24  29 SW20      29.93F
$$

MTZ011-013-016-021-045-047-050-051-171600-
NORTH CENTRAL MONTANA

CITY           SKY/WX    TMP DP  RH WIND       PRES   REMARKS
HAVRE          SUNNY     61  24  24 SW24G32   29.81F
N BAR RANCH      N/A     61   7  11 W8G17     29.97F
CHINOOK          N/A     64  23  20 SW28G37   29.75F
DENTON           N/A     53  23  31 S10       29.89F
GEYSER           N/A     58  19  22 W31       29.90F
GRASS RANGE      N/A     59  19  21 W25       29.89F
JUDITH GAP       N/A     55  21  26 SW18      30.00F
WINIFRED         N/A     57  22  25 SW16      29.91F
$$

MTZ017>020-022>027-061-062-171600-
NORTHEAST MONTANA

CITY           SKY/WX    TMP DP  RH WIND       PRES   REMARKS
GLASGOW        MOSUNNY   52  27  38 SW7       29.82F
JORDAN           N/A     55  27  34 W6        29.88S
SIDNEY         CLOUDY    47  32  56 S12       29.86S
WOLF POINT     CLOUDY    47  35  63 CALM      29.84S
MALTA          SUNNY     59  27  29 S12       29.79S
PLENTYWOOD       N/A     54  27  35 CALM      29.78F
POPLAR           N/A     46  30  53 SW6       29.83F
SCOBEY           N/A     55  26  32 SW14      29.78
$$

MTZ028>42-056>058-171600-
SOUTHCENTRAL AND SOUTHEAST MONTANA

CITY           SKY/WX    TMP DP  RH WIND       PRES   REMARKS
BAKER          SUNNY     55  28  35 SW13      29.98R
BILLINGS       MOSUNNY   52  22  30 SW15      30.02S
LIVINGSTON     SUNNY     53  20  27 SW26G43   30.07F
MILES CITY       N/A     45  30  55 S9        29.96S
BIG TIMBER     SUNNY     52  19  28 W22G31    30.07F
EKALAKA          N/A     59  20  22 SW7       29.99
FORSYTH          N/A     59  21  23 SW6       29.96S
HARLOWTON        N/A     54  20  26 MISG      30.00S
LAUREL           N/A     54  23  30 SW9       30.03S
$$

REGIONAL REPORTS...DAKOTAS

CITY           SKY/WX    TMP DP  RH WIND       PRES   REMARKS
WILLISTON      CLOUDY    49  33  54 SW7       29.83S
MINOT          MOSUNNY   54  33  45 SW13      29.80R
BEACH            N/A     52  27  37 SW13      29.96S
CROSBY           N/A     52  30  43 SW15      29.77F
TIOGA            N/A     52  30  43 SW13      29.83R
WATFORD CITY     N/A     50  32  50 SW10      29.85S
BISMARCK       SUNNY     46  35  65 CALM      29.91S
GRAND FORKS    PTSUNNY   52  40  63 S13       29.86F
FARGO          SUNNY     48  38  68 S8        29.93F
BUFFALO SD       N/A     53  28  38 W9        29.94R
RAPID CITY     SUNNY     58  27  30 W5        30.06S
$$

REGIONAL REPORTS...WYOMING/IDAHO/WASHINGTON

CITY           SKY/WX    TMP DP  RH WIND       PRES   REMARKS
GILLETTE         N/A     48  31  51 MISG      30.08F
SHERIDAN       SUNNY     51  32  48 CALM      30.05S
BUFFALO WY     SUNNY     56  14  19 SW3       30.11R
CODY           SUNNY     57  18  21 VRB3      30.16R
IDAHO FALLS    CLOUDY    29  26  89 N5        30.29F
SALMON         CLOUDY    31  27  85 CALM      30.25S
BOISE          MOCLDY    43  29  57 E6        30.17F
SPOKANE        PTCLDY    44  32  62 S12       29.92F
$$

REGIONAL REPORTS...ALBERTA

CITY           SKY/WX    TMP DP  RH WIND       PRES   REMARKS
EDMONTON       MOCLDY    45  37  76 S5        29.32F
CALGARY        MOCLDY    48  34  57 S6        29.46F
LETHBRIDGE     MOCLDY    55  30  38 S8        29.67F
MEDICINE HAT   PTCLDY    63  28  27 SW33G46   29.55S
$$

REGIONAL REPORTS...SASKATCHEWAN

CITY           SKY/WX    TMP DP  RH WIND       PRES   REMARKS
SWIFT CURRENT  SUNNY     50  28  43 SW23G30   29.65F
REGINA         PTSUNNY   52  30  43 SW9       29.67S
SASKATOON      PTSUNNY   43  36  75 SW8       29.57F
$$




USA.gov is the U.S. government's official web portal to all federal, state and local government web resources and services.